DAL406 PANC-KMSP

Flight info

Callsign DAL406
Flight time 4h 28m
Altitude 35000
Route NOEND JOH YAK YYE 57N120W/N0450F370 ELTIP 53N110W 50N100W GGULL BAINY4
Aircraft B739/M-SDE2E3FGHIRWXY/LB1

Departure

Time 2026-05-06 15:44
Airport Ted Stevens Anchorage International Airport (PANC)

Arrival

Time 2026-05-06 20:12
Airport Minneapolis–Saint Paul International Airport / Wold–Chamberlain Field (KMSP)
Time Latitude Longitude Altitude Speed Heading
2026-05-06 14:48 61.17269 -149.98552 110 ft 0 kts 108°
2026-05-06 15:27 61.17270 -149.98561 110 ft 3 kts 108°
2026-05-06 15:28 61.17278 -149.98614 110 ft 4 kts 108°
2026-05-06 15:28 61.17286 -149.98662 110 ft 2 kts 108°
2026-05-06 15:28 61.17295 -149.98702 109 ft 4 kts 155°
2026-05-06 15:28 61.17316 -149.98698 108 ft 3 kts 213°
2026-05-06 15:29 61.17336 -149.98672 109 ft 1 kts 213°
2026-05-06 15:29 61.17336 -149.98671 109 ft 1 kts 213°
2026-05-06 15:31 61.17333 -149.98675 108 ft 5 kts 213°
2026-05-06 15:31 61.17290 -149.98732 108 ft 7 kts 211°
2026-05-06 15:32 61.17170 -149.98721 111 ft 12 kts 153°
2026-05-06 15:32 61.17123 -149.98597 112 ft 10 kts 100°
2026-05-06 15:32 61.17119 -149.98466 114 ft 9 kts 88°
2026-05-06 15:32 61.17122 -149.98341 114 ft 8 kts 87°
2026-05-06 15:33 61.17123 -149.98330 111 ft 0 kts 84°
2026-05-06 15:34 61.17123 -149.98289 114 ft 9 kts 90°
2026-05-06 15:35 61.17119 -149.98088 114 ft 18 kts 92°
2026-05-06 15:35 61.17119 -149.97797 110 ft 21 kts 89°
2026-05-06 15:35 61.17123 -149.97505 105 ft 20 kts 88°
2026-05-06 15:35 61.17127 -149.97219 101 ft 20 kts 89°
2026-05-06 15:36 61.17128 -149.96941 97 ft 19 kts 89°
2026-05-06 15:36 61.17127 -149.96673 95 ft 18 kts 89°
2026-05-06 15:36 61.17128 -149.96414 95 ft 18 kts 90°
2026-05-06 15:36 61.17128 -149.96165 95 ft 17 kts 90°
2026-05-06 15:37 61.17128 -149.95924 96 ft 16 kts 90°
2026-05-06 15:37 61.17129 -149.95692 96 ft 16 kts 90°
2026-05-06 15:37 61.17129 -149.95469 96 ft 15 kts 89°
2026-05-06 15:37 61.17130 -149.95256 96 ft 15 kts 89°
2026-05-06 15:38 61.17129 -149.95051 95 ft 14 kts 90°
2026-05-06 15:38 61.17115 -149.94864 97 ft 13 kts 132°
2026-05-06 15:38 61.17092 -149.94839 97 ft 0 kts 165°
2026-05-06 15:39 61.17067 -149.94832 96 ft 9 kts 179°
2026-05-06 15:39 61.17005 -149.94903 97 ft 12 kts 233°
2026-05-06 15:39 61.16982 -149.95040 100 ft 0 kts 268°
2026-05-06 15:42 61.16982 -149.95080 100 ft 9 kts 270°
2026-05-06 15:43 61.16981 -149.95673 100 ft 75 kts 270°
2026-05-06 15:43 61.16980 -149.97168 103 ft 132 kts 270°
2026-05-06 15:43 61.16972 -149.99392 164 ft 171 kts 270°
2026-05-06 15:43 61.16988 -150.01915 603 ft 180 kts 270°
2026-05-06 15:44 61.17022 -150.04622 1055 ft 195 kts 270°
2026-05-06 15:44 61.17064 -150.07406 1817 ft 190 kts 271°
2026-05-06 15:44 61.17134 -150.10135 2482 ft 191 kts 269°
2026-05-06 15:44 61.17133 -150.12942 2975 ft 199 kts 268°
2026-05-06 15:45 61.17127 -150.15848 3502 ft 202 kts 268°
2026-05-06 15:45 61.16829 -150.18683 3954 ft 206 kts 239°
2026-05-06 15:45 61.15871 -150.20951 4269 ft 215 kts 214°
2026-05-06 15:45 61.14560 -150.22290 4991 ft 203 kts 195°
2026-05-06 15:46 61.13237 -150.22973 5786 ft 192 kts 193°
2026-05-06 15:46 61.11908 -150.23599 6179 ft 203 kts 191°
2026-05-06 15:46 61.10431 -150.23841 6304 ft 224 kts 174°
2026-05-06 15:46 61.08897 -150.22966 6640 ft 235 kts 154°
2026-05-06 15:47 61.07508 -150.20997 6885 ft 256 kts 138°
2026-05-06 15:47 61.06298 -150.18078 7187 ft 274 kts 124°
2026-05-06 15:47 61.05358 -150.14594 7791 ft 282 kts 114°
2026-05-06 15:47 61.04719 -150.10806 8709 ft 276 kts 105°
2026-05-06 15:48 61.04374 -150.06985 9758 ft 267 kts 97°
2026-05-06 15:48 61.04223 -150.03139 10349 ft 273 kts 95°
2026-05-06 15:48 61.04082 -149.99111 10621 ft 290 kts 93°
2026-05-06 15:48 61.04015 -149.94892 11207 ft 293 kts 91°
2026-05-06 15:49 61.04013 -149.90689 11917 ft 296 kts 90°
2026-05-06 15:49 61.04039 -149.86289 12100 ft 317 kts 89°
2026-05-06 15:49 61.04074 -149.81604 12277 ft 336 kts 89°
2026-05-06 15:49 61.04111 -149.76661 12461 ft 353 kts 89°
2026-05-06 15:50 61.04202 -149.71526 12900 ft 362 kts 84°
2026-05-06 15:50 61.04545 -149.66359 13545 ft 365 kts 81°
2026-05-06 15:50 61.04957 -149.61174 14153 ft 367 kts 81°
2026-05-06 15:50 61.05385 -149.55961 14728 ft 370 kts 81°
2026-05-06 15:51 61.05822 -149.50777 15294 ft 373 kts 81°
2026-05-06 15:51 61.06274 -149.45486 15843 ft 376 kts 81°
2026-05-06 15:51 61.06734 -149.40138 16404 ft 379 kts 81°
2026-05-06 15:51 61.07200 -149.34754 16948 ft 383 kts 81°
2026-05-06 15:52 61.07670 -149.29318 17511 ft 386 kts 81°
2026-05-06 15:52 61.08066 -149.24750 17966 ft 388 kts 81°
2026-05-06 15:54 61.08096 -149.24403 17999 ft 389 kts 81°
2026-05-06 15:54 61.08575 -149.18878 18486 ft 392 kts 81°
2026-05-06 15:54 61.09057 -149.13313 18945 ft 395 kts 81°
2026-05-06 15:55 61.09544 -149.07697 19432 ft 398 kts 81°
2026-05-06 15:55 61.10034 -149.02052 19878 ft 401 kts 81°
2026-05-06 15:55 61.10457 -148.96338 20357 ft 403 kts 84°
2026-05-06 15:55 61.10784 -148.90569 20810 ft 405 kts 84°
2026-05-06 15:56 61.11095 -148.84761 21218 ft 408 kts 84°
2026-05-06 15:56 61.11417 -148.78915 21641 ft 411 kts 84°
2026-05-06 15:56 61.11754 -148.73032 22053 ft 413 kts 84°
2026-05-06 15:56 61.12103 -148.67120 22461 ft 416 kts 84°
2026-05-06 15:57 61.12456 -148.61163 22849 ft 419 kts 85°
2026-05-06 15:57 61.12807 -148.55162 23219 ft 422 kts 86°
2026-05-06 15:57 61.12798 -148.49103 23561 ft 422 kts 101°
2026-05-06 15:57 61.12001 -148.43304 23920 ft 419 kts 116°
2026-05-06 15:58 61.10559 -148.38082 24239 ft 418 kts 127°
2026-05-06 15:58 61.08869 -148.33164 24528 ft 422 kts 127°
2026-05-06 15:58 61.07151 -148.28214 24828 ft 425 kts 127°
2026-05-06 15:58 61.05428 -148.23239 25163 ft 427 kts 127°
2026-05-06 15:59 61.03702 -148.18231 25489 ft 429 kts 127°
2026-05-06 15:59 61.01972 -148.13186 25798 ft 432 kts 127°
2026-05-06 15:59 61.00234 -148.08103 26097 ft 435 kts 127°
2026-05-06 15:59 60.98489 -148.02996 26401 ft 437 kts 127°
2026-05-06 16:00 60.96737 -147.97870 26697 ft 439 kts 127°
2026-05-06 16:00 60.94973 -147.92722 26982 ft 441 kts 127°
2026-05-06 16:00 60.93200 -147.87554 27263 ft 444 kts 128°
2026-05-06 16:00 60.91411 -147.82354 27540 ft 446 kts 128°
2026-05-06 16:01 60.89614 -147.77144 27806 ft 448 kts 128°
2026-05-06 16:01 60.87807 -147.71915 28051 ft 450 kts 128°
2026-05-06 16:01 60.85987 -147.66662 28312 ft 452 kts 128°
2026-05-06 16:01 60.84184 -147.61470 28568 ft 454 kts 128°
2026-05-06 16:02 60.82344 -147.56182 28814 ft 456 kts 128°
2026-05-06 16:02 60.80495 -147.50881 29052 ft 458 kts 128°
2026-05-06 16:02 60.78638 -147.45570 29387 ft 458 kts 129°
2026-05-06 16:02 60.76787 -147.40283 29778 ft 457 kts 129°
2026-05-06 16:03 60.74937 -147.35016 30112 ft 456 kts 129°
2026-05-06 16:03 60.73082 -147.29745 30348 ft 457 kts 129°
2026-05-06 16:03 60.71221 -147.24472 30570 ft 458 kts 129°
2026-05-06 16:03 60.69355 -147.19194 30810 ft 459 kts 129°
2026-05-06 16:04 60.67486 -147.13921 31073 ft 459 kts 129°
2026-05-06 16:04 60.65612 -147.08646 31309 ft 460 kts 129°
2026-05-06 16:04 60.63734 -147.03369 31521 ft 460 kts 129°
2026-05-06 16:04 60.61848 -146.98083 31746 ft 461 kts 129°
2026-05-06 16:05 60.59963 -146.92811 31997 ft 461 kts 129°
2026-05-06 16:05 60.58072 -146.87535 32226 ft 462 kts 129°
2026-05-06 16:05 60.56179 -146.82264 32451 ft 462 kts 129°
2026-05-06 16:05 60.54283 -146.76993 32688 ft 462 kts 129°
2026-05-06 16:06 60.52381 -146.71719 32913 ft 463 kts 129°
2026-05-06 16:06 60.50477 -146.66451 33124 ft 463 kts 129°
2026-05-06 16:06 60.48772 -146.60872 33315 ft 468 kts 119°
2026-05-06 16:06 60.47492 -146.54781 33532 ft 472 kts 110°
2026-05-06 16:07 60.46663 -146.48332 33762 ft 474 kts 105°
2026-05-06 16:07 60.45958 -146.41805 33943 ft 475 kts 105°
2026-05-06 16:07 60.45266 -146.35253 34104 ft 476 kts 105°
2026-05-06 16:07 60.44568 -146.28687 34239 ft 477 kts 105°
2026-05-06 16:08 60.43856 -146.22121 34410 ft 477 kts 105°
2026-05-06 16:08 60.43133 -146.15577 34609 ft 476 kts 105°
2026-05-06 16:08 60.42398 -146.09048 34787 ft 476 kts 105°
2026-05-06 16:08 60.41656 -146.02522 34932 ft 477 kts 106°
2026-05-06 16:09 60.40145 -145.89420 34971 ft 478 kts 106°
2026-05-06 16:09 60.38626 -145.76360 34977 ft 476 kts 106°
2026-05-06 16:10 60.37104 -145.63381 34981 ft 473 kts 106°
2026-05-06 16:10 60.35576 -145.50468 34997 ft 472 kts 107°
2026-05-06 16:11 60.34037 -145.37585 35004 ft 472 kts 107°
2026-05-06 16:11 60.32484 -145.24700 35006 ft 473 kts 107°
2026-05-06 16:12 60.30915 -145.11797 35009 ft 474 kts 107°
2026-05-06 16:12 60.29328 -144.98863 34992 ft 476 kts 107°
2026-05-06 16:13 60.27724 -144.85894 35008 ft 478 kts 107°
2026-05-06 16:13 60.26099 -144.72880 35016 ft 479 kts 107°
2026-05-06 16:14 60.24460 -144.59865 35015 ft 480 kts 108°
2026-05-06 16:14 60.22805 -144.46841 35011 ft 480 kts 108°
2026-05-06 16:15 60.21139 -144.33841 34971 ft 479 kts 108°
2026-05-06 16:15 60.19467 -144.20904 35007 ft 477 kts 108°
2026-05-06 16:16 60.17787 -144.08014 35014 ft 476 kts 108°
2026-05-06 16:16 60.16108 -143.95252 35016 ft 476 kts 108°
2026-05-06 16:17 60.14408 -143.82425 35023 ft 475 kts 108°
2026-05-06 16:17 60.12697 -143.69632 35023 ft 475 kts 109°
2026-05-06 16:18 60.10973 -143.56844 35023 ft 475 kts 109°
2026-05-06 16:18 60.09237 -143.44071 35025 ft 475 kts 109°
2026-05-06 16:19 60.08659 -143.39838 35029 ft 475 kts 109°
2026-05-06 16:19 60.05890 -143.19733 35037 ft 476 kts 109°
2026-05-06 16:20 60.04113 -143.06958 35036 ft 477 kts 109°
2026-05-06 16:20 60.02322 -142.94188 35033 ft 477 kts 109°
2026-05-06 16:21 60.00519 -142.81430 35035 ft 477 kts 109°
2026-05-06 16:21 59.98702 -142.68675 35046 ft 478 kts 110°
2026-05-06 16:22 59.96869 -142.55915 35048 ft 478 kts 110°
2026-05-06 16:22 59.95022 -142.43154 35058 ft 479 kts 110°
2026-05-06 16:23 59.93162 -142.30397 35045 ft 479 kts 110°
2026-05-06 16:23 59.91291 -142.17665 35057 ft 479 kts 110°
2026-05-06 16:24 59.89404 -142.04923 35066 ft 479 kts 110°
2026-05-06 16:24 59.87504 -141.92196 35071 ft 480 kts 110°
2026-05-06 16:25 59.85590 -141.79466 35068 ft 480 kts 110°
2026-05-06 16:25 59.83676 -141.66835 35060 ft 480 kts 111°
2026-05-06 16:26 59.81739 -141.54141 35077 ft 480 kts 111°
2026-05-06 16:26 59.79789 -141.41466 35092 ft 480 kts 111°
2026-05-06 16:27 59.77825 -141.28788 35088 ft 480 kts 111°
2026-05-06 16:27 59.75848 -141.16121 35087 ft 481 kts 111°
2026-05-06 16:28 59.73858 -141.03466 35057 ft 481 kts 111°
2026-05-06 16:28 59.71857 -140.90829 35086 ft 480 kts 111°
2026-05-06 16:29 59.69845 -140.78219 35101 ft 480 kts 111°
2026-05-06 16:29 59.67822 -140.65624 35092 ft 480 kts 112°
2026-05-06 16:30 59.66131 -140.55169 35099 ft 480 kts 112°
2026-05-06 16:30 59.63737 -140.40472 35078 ft 480 kts 112°
2026-05-06 16:31 59.61680 -140.27935 35096 ft 480 kts 112°
2026-05-06 16:31 59.59611 -140.15416 35108 ft 479 kts 112°
2026-05-06 16:32 59.57531 -140.02922 35114 ft 479 kts 112°
2026-05-06 16:32 59.55439 -139.90432 35112 ft 479 kts 112°
2026-05-06 16:33 59.53338 -139.77966 35111 ft 479 kts 112°
2026-05-06 16:34 59.51147 -139.58732 35123 ft 488 kts 92°
2026-05-06 16:34 59.51467 -139.45358 35122 ft 490 kts 89°
2026-05-06 16:35 59.51882 -139.31957 35127 ft 491 kts 89°
2026-05-06 16:35 59.52246 -139.18537 35125 ft 491 kts 90°
2026-05-06 16:36 59.52560 -139.05173 35132 ft 491 kts 90°
2026-05-06 16:36 59.52849 -138.91744 35136 ft 491 kts 90°
2026-05-06 16:37 59.53124 -138.78344 35147 ft 489 kts 90°
2026-05-06 16:37 59.53387 -138.64967 35162 ft 489 kts 90°
2026-05-06 16:38 59.53636 -138.51579 35163 ft 489 kts 90°
2026-05-06 16:38 59.53873 -138.38172 35166 ft 490 kts 90°
2026-05-06 16:39 59.54097 -138.24739 35159 ft 491 kts 91°
2026-05-06 16:39 59.54306 -138.11298 35168 ft 491 kts 91°
2026-05-06 16:40 59.54503 -137.97849 35124 ft 490 kts 91°
2026-05-06 16:40 59.54685 -137.84432 35157 ft 490 kts 91°
2026-05-06 16:41 59.54853 -137.71005 35163 ft 490 kts 91°
2026-05-06 16:41 59.55008 -137.57566 35149 ft 490 kts 91°
2026-05-06 16:42 59.55148 -137.44129 35162 ft 490 kts 91°
2026-05-06 16:42 59.55275 -137.30694 35150 ft 491 kts 91°
2026-05-06 16:43 59.55388 -137.17247 35144 ft 490 kts 91°
2026-05-06 16:43 59.55488 -137.03798 35131 ft 491 kts 92°
2026-05-06 16:44 59.55574 -136.90320 35122 ft 492 kts 92°
2026-05-06 16:44 59.55646 -136.76838 35133 ft 492 kts 92°
2026-05-06 16:45 59.55704 -136.63336 35133 ft 493 kts 92°
2026-05-06 16:45 59.55749 -136.49824 35135 ft 493 kts 92°
2026-05-06 16:46 59.55779 -136.36289 35137 ft 494 kts 92°
2026-05-06 16:46 59.55796 -136.22735 35131 ft 495 kts 92°
2026-05-06 16:47 59.55799 -136.09184 35116 ft 494 kts 92°
2026-05-06 16:47 59.55788 -135.95645 35120 ft 494 kts 92°
2026-05-06 16:48 59.55762 -135.82126 35133 ft 492 kts 93°
2026-05-06 16:48 59.55723 -135.68601 35113 ft 493 kts 93°
2026-05-06 16:49 59.55670 -135.55091 35121 ft 492 kts 93°
2026-05-06 16:49 59.55603 -135.41606 35118 ft 492 kts 93°
2026-05-06 16:50 59.55522 -135.28135 35114 ft 490 kts 93°
2026-05-06 16:50 59.55429 -135.14800 35112 ft 489 kts 93°
2026-05-06 16:51 59.55321 -135.01396 35109 ft 490 kts 93°
2026-05-06 16:51 59.55199 -134.87972 35105 ft 490 kts 93°
2026-05-06 16:52 59.55064 -134.74533 35099 ft 490 kts 94°
2026-05-06 16:52 59.54914 -134.61091 35097 ft 491 kts 93°
2026-05-06 16:53 59.54751 -134.47628 35085 ft 491 kts 94°
2026-05-06 16:53 59.54574 -134.34175 35074 ft 490 kts 93°
2026-05-06 16:54 59.54384 -134.20762 35078 ft 490 kts 94°
2026-05-06 16:54 59.54180 -134.07345 35075 ft 490 kts 94°
2026-05-06 16:55 59.53962 -133.93934 35076 ft 489 kts 94°
2026-05-06 16:55 59.53731 -133.80540 35090 ft 489 kts 94°
2026-05-06 16:56 59.53486 -133.67166 35104 ft 488 kts 94°
2026-05-06 16:56 59.53228 -133.53806 35101 ft 488 kts 94°
2026-05-06 16:57 59.52957 -133.40473 35118 ft 486 kts 94°
2026-05-06 16:57 59.52673 -133.27180 35127 ft 486 kts 94°
2026-05-06 16:58 59.52376 -133.13895 35133 ft 485 kts 94°
2026-05-06 16:58 59.52065 -133.00609 35126 ft 486 kts 95°
2026-05-06 16:59 59.51741 -132.87329 35126 ft 485 kts 95°
2026-05-06 16:59 59.51404 -132.74051 35122 ft 486 kts 95°
2026-05-06 17:00 59.51052 -132.60763 35086 ft 486 kts 95°
2026-05-06 17:00 59.50688 -132.47494 35104 ft 486 kts 95°
2026-05-06 17:01 59.50313 -132.34322 35117 ft 485 kts 95°
2026-05-06 17:01 59.49922 -132.21064 35116 ft 485 kts 95°
2026-05-06 17:02 59.49517 -132.07798 35115 ft 486 kts 95°
2026-05-06 17:02 59.49099 -131.94526 35107 ft 486 kts 95°
2026-05-06 17:03 59.48667 -131.81246 35102 ft 486 kts 96°
2026-05-06 17:03 59.48221 -131.67979 35076 ft 486 kts 96°
2026-05-06 17:04 59.47763 -131.54715 35104 ft 486 kts 96°
2026-05-06 17:04 59.47289 -131.41430 35112 ft 487 kts 96°
2026-05-06 17:05 59.46885 -131.30381 35096 ft 488 kts 96°
2026-05-06 17:05 59.46386 -131.17067 35098 ft 488 kts 96°
2026-05-06 17:06 59.45788 -131.01579 35090 ft 489 kts 96°
2026-05-06 17:06 59.45346 -130.90416 35089 ft 489 kts 97°
2026-05-06 17:07 59.44806 -130.77093 35060 ft 489 kts 97°
2026-05-06 17:07 59.44255 -130.63869 35073 ft 489 kts 97°
2026-05-06 17:08 59.43688 -130.50566 35075 ft 489 kts 97°
2026-05-06 17:08 59.43106 -130.37240 35067 ft 490 kts 97°
2026-05-06 17:09 59.42506 -130.23830 35071 ft 490 kts 97°
2026-05-06 17:09 59.41897 -130.10507 35061 ft 490 kts 98°
2026-05-06 17:10 59.41279 -129.97278 35055 ft 490 kts 98°
2026-05-06 17:10 59.40642 -129.83963 35054 ft 490 kts 98°
2026-05-06 17:11 59.39992 -129.70657 35045 ft 490 kts 98°
2026-05-06 17:11 59.39328 -129.57346 35040 ft 490 kts 99°
2026-05-06 17:12 59.38650 -129.44025 35036 ft 491 kts 99°
2026-05-06 17:12 59.37956 -129.30684 35038 ft 492 kts 99°
2026-05-06 17:13 59.37249 -129.17337 35038 ft 492 kts 99°
2026-05-06 17:13 59.36529 -129.04013 35030 ft 492 kts 99°
2026-05-06 17:14 59.35795 -128.90682 35027 ft 492 kts 99°
2026-05-06 17:14 59.35046 -128.77348 35014 ft 492 kts 99°
2026-05-06 17:15 59.34284 -128.64021 35017 ft 492 kts 99°
2026-05-06 17:15 59.33510 -128.50717 35024 ft 492 kts 99°
2026-05-06 17:16 59.32720 -128.37402 35004 ft 493 kts 99°
2026-05-06 17:16 59.31917 -128.24083 35003 ft 492 kts 100°
2026-05-06 17:17 59.31099 -128.10760 34970 ft 493 kts 100°
2026-05-06 17:17 59.30269 -127.97465 34980 ft 492 kts 100°
2026-05-06 17:18 59.29428 -127.84204 34995 ft 491 kts 101°
2026-05-06 17:18 59.28574 -127.70961 34997 ft 490 kts 101°
2026-05-06 17:19 59.27712 -127.57820 34984 ft 490 kts 101°
2026-05-06 17:19 59.26826 -127.44516 34983 ft 490 kts 101°
2026-05-06 17:20 59.25940 -127.31411 34982 ft 489 kts 101°
2026-05-06 17:20 59.25035 -127.18238 34983 ft 489 kts 101°
2026-05-06 17:21 59.24117 -127.05071 34974 ft 489 kts 102°
2026-05-06 17:21 59.23185 -126.91918 34971 ft 489 kts 102°
2026-05-06 17:22 59.22240 -126.78763 34961 ft 490 kts 102°
2026-05-06 17:22 59.21280 -126.65594 34968 ft 490 kts 102°
2026-05-06 17:23 59.20307 -126.52431 34961 ft 490 kts 102°
2026-05-06 17:23 59.19318 -126.39253 34959 ft 491 kts 102°
2026-05-06 17:24 59.18317 -126.26084 34937 ft 491 kts 102°
2026-05-06 17:24 59.17303 -126.12930 34937 ft 490 kts 102°
2026-05-06 17:25 59.16277 -125.99803 34938 ft 489 kts 102°
2026-05-06 17:25 59.15241 -125.86714 34938 ft 488 kts 102°
2026-05-06 17:26 59.14191 -125.73639 34921 ft 489 kts 103°
2026-05-06 17:26 59.13127 -125.60562 34910 ft 488 kts 103°
2026-05-06 17:27 59.12054 -125.47526 34896 ft 488 kts 103°
2026-05-06 17:27 59.10975 -125.34595 34890 ft 487 kts 103°
2026-05-06 17:28 59.09877 -125.21606 34897 ft 487 kts 103°
2026-05-06 17:28 59.08764 -125.08595 34895 ft 489 kts 103°
2026-05-06 17:29 59.07633 -124.95536 34861 ft 490 kts 103°
2026-05-06 17:29 59.06487 -124.82457 34872 ft 491 kts 103°
2026-05-06 17:30 59.05327 -124.69380 34871 ft 491 kts 103°
2026-05-06 17:30 59.04154 -124.56313 34858 ft 491 kts 103°
2026-05-06 17:31 59.02967 -124.43254 34853 ft 491 kts 103°
2026-05-06 17:31 59.01767 -124.30194 34848 ft 491 kts 103°
2026-05-06 17:32 59.00555 -124.17164 34854 ft 490 kts 103°
2026-05-06 17:32 58.99333 -124.04164 34846 ft 490 kts 103°
2026-05-06 17:33 58.98099 -123.91195 34842 ft 488 kts 103°
2026-05-06 17:33 58.96856 -123.78268 34798 ft 488 kts 103°
2026-05-06 17:34 58.95604 -123.65390 34828 ft 486 kts 103°
2026-05-06 17:34 58.94342 -123.52555 34824 ft 484 kts 103°
2026-05-06 17:35 58.93072 -123.39773 34832 ft 483 kts 103°
2026-05-06 17:35 58.91792 -123.27024 34838 ft 482 kts 103°
2026-05-06 17:36 58.89737 -123.08016 34817 ft 478 kts 112°
2026-05-06 17:36 58.88370 -123.02219 34843 ft 471 kts 125°
2026-05-06 17:36 58.86495 -122.97077 34807 ft 465 kts 135°
2026-05-06 17:37 58.81779 -122.88710 34830 ft 460 kts 143°
2026-05-06 17:37 58.76951 -122.80689 34832 ft 462 kts 143°
2026-05-06 17:38 58.72094 -122.72547 34830 ft 464 kts 143°
2026-05-06 17:38 58.67227 -122.64352 34833 ft 466 kts 143°
2026-05-06 17:39 58.62344 -122.56139 34819 ft 467 kts 142°
2026-05-06 17:39 58.57448 -122.47936 34833 ft 468 kts 142°
2026-05-06 17:40 58.52535 -122.39741 34847 ft 469 kts 143°
2026-05-06 17:40 58.47614 -122.31564 34850 ft 469 kts 143°
2026-05-06 17:41 58.42684 -122.23406 34848 ft 469 kts 143°
2026-05-06 17:41 58.37759 -122.15286 34842 ft 468 kts 143°
2026-05-06 17:42 58.32833 -122.07195 34851 ft 467 kts 143°
2026-05-06 17:42 58.27909 -121.99140 34848 ft 467 kts 143°
2026-05-06 17:43 58.22986 -121.91117 34854 ft 466 kts 143°
2026-05-06 17:43 58.18062 -121.83122 34832 ft 466 kts 143°
2026-05-06 17:44 58.13139 -121.75159 34851 ft 465 kts 143°
2026-05-06 17:44 58.08212 -121.67220 34852 ft 465 kts 143°
2026-05-06 17:45 58.03282 -121.59306 34850 ft 465 kts 143°
2026-05-06 17:45 57.98344 -121.51409 34850 ft 465 kts 143°
2026-05-06 17:46 57.93434 -121.43586 34848 ft 465 kts 144°
2026-05-06 17:46 57.88482 -121.35725 34856 ft 466 kts 144°
2026-05-06 17:47 57.83518 -121.27874 34858 ft 467 kts 144°
2026-05-06 17:47 57.78534 -121.20022 34855 ft 468 kts 144°
2026-05-06 17:48 57.73535 -121.12175 34855 ft 469 kts 144°
2026-05-06 17:48 57.68526 -121.04341 34856 ft 469 kts 144°
2026-05-06 17:49 57.63510 -120.96524 34851 ft 470 kts 144°
2026-05-06 17:49 57.58484 -120.88722 34844 ft 470 kts 144°
2026-05-06 17:50 57.53455 -120.80943 34842 ft 470 kts 144°
2026-05-06 17:50 57.48426 -120.73195 34831 ft 469 kts 144°
2026-05-06 17:51 57.43396 -120.65472 34835 ft 469 kts 144°
2026-05-06 17:51 57.38365 -120.57778 34834 ft 469 kts 145°
2026-05-06 17:52 57.33325 -120.50098 34821 ft 469 kts 145°
2026-05-06 17:52 57.29139 -120.43739 34805 ft 469 kts 145°
2026-05-06 17:53 57.24095 -120.36104 34806 ft 469 kts 145°
2026-05-06 17:53 57.19046 -120.28488 34805 ft 469 kts 145°
2026-05-06 17:54 57.13992 -120.20892 34798 ft 469 kts 145°
2026-05-06 17:54 57.08929 -120.13309 34798 ft 469 kts 145°
2026-05-06 17:55 57.03860 -120.05741 34783 ft 470 kts 145°
2026-05-06 17:55 56.99054 -119.97565 34781 ft 476 kts 132°
2026-05-06 17:56 56.95308 -119.87484 34791 ft 480 kts 126°
2026-05-06 17:56 56.91665 -119.77232 34796 ft 480 kts 127°
2026-05-06 17:57 56.87984 -119.67024 34773 ft 481 kts 127°
2026-05-06 17:57 56.84268 -119.56871 34794 ft 480 kts 127°
2026-05-06 17:58 56.80536 -119.46752 34797 ft 480 kts 127°
2026-05-06 17:58 56.65899 -119.07450 34778 ft 480 kts 127°
2026-05-06 17:59 56.50755 -118.67427 34808 ft 480 kts 127°
2026-05-06 17:59 56.35480 -118.27747 34821 ft 482 kts 128°
2026-05-06 18:00 56.20053 -117.88311 34799 ft 483 kts 128°
2026-05-06 18:00 56.04440 -117.49033 34814 ft 484 kts 128°
2026-05-06 18:01 55.88762 -117.10220 34821 ft 485 kts 128°
2026-05-06 18:01 55.72720 -116.71132 34830 ft 487 kts 128°
2026-05-06 18:02 55.56596 -116.32455 34830 ft 489 kts 128°
2026-05-06 18:02 55.40393 -115.94202 34845 ft 490 kts 128°
2026-05-06 18:03 55.23804 -115.55658 34850 ft 492 kts 128°
2026-05-06 18:03 55.07138 -115.17495 34885 ft 495 kts 128°
2026-05-06 18:04 54.90269 -114.79495 34906 ft 496 kts 128°
2026-05-06 18:04 54.78142 -114.52529 34931 ft 498 kts 128°
2026-05-06 18:05 54.73865 -114.43094 34930 ft 498 kts 128°
2026-05-06 18:05 54.69573 -114.33658 34929 ft 499 kts 128°
2026-05-06 18:06 54.65278 -114.24250 34926 ft 499 kts 128°
2026-05-06 18:06 54.60971 -114.14850 34935 ft 499 kts 128°
2026-05-06 18:07 54.56648 -114.05451 34934 ft 499 kts 128°
2026-05-06 18:07 54.52324 -113.96085 34939 ft 499 kts 128°
2026-05-06 18:08 54.47994 -113.86744 34934 ft 499 kts 128°
2026-05-06 18:08 54.43658 -113.77423 34937 ft 499 kts 128°
2026-05-06 18:09 54.39309 -113.68112 34943 ft 499 kts 128°
2026-05-06 18:09 54.34960 -113.58833 34950 ft 499 kts 128°
2026-05-06 18:10 54.30627 -113.49622 34968 ft 500 kts 128°
2026-05-06 18:10 54.26249 -113.40351 34956 ft 500 kts 128°
2026-05-06 18:11 54.21861 -113.31095 34964 ft 501 kts 128°
2026-05-06 18:11 54.17464 -113.21852 34970 ft 501 kts 128°
2026-05-06 18:12 54.13058 -113.12625 34977 ft 502 kts 128°
2026-05-06 18:12 54.08642 -113.03406 34969 ft 502 kts 128°
2026-05-06 18:13 54.04266 -112.94135 34962 ft 502 kts 123°
2026-05-06 18:13 54.00715 -112.83966 34983 ft 499 kts 116°
2026-05-06 18:14 53.97353 -112.73632 34979 ft 500 kts 116°
2026-05-06 18:14 53.93944 -112.63327 34988 ft 501 kts 117°
2026-05-06 18:15 53.90478 -112.53055 35001 ft 502 kts 117°
2026-05-06 18:15 53.87004 -112.42860 35006 ft 502 kts 117°
2026-05-06 18:16 53.83499 -112.32616 34998 ft 503 kts 117°
2026-05-06 18:16 53.79983 -112.22372 34999 ft 503 kts 117°
2026-05-06 18:17 53.76461 -112.12153 35002 ft 503 kts 117°
2026-05-06 18:17 53.72929 -112.01943 35013 ft 503 kts 117°
2026-05-06 18:18 53.69393 -111.91764 35007 ft 503 kts 117°
2026-05-06 18:18 53.65839 -111.81576 35014 ft 503 kts 117°
2026-05-06 18:19 53.62301 -111.71474 35014 ft 504 kts 117°
2026-05-06 18:19 53.53755 -111.47236 35026 ft 504 kts 117°
2026-05-06 18:20 53.39323 -111.06845 35031 ft 505 kts 117°
2026-05-06 18:20 53.28858 -110.77966 35056 ft 507 kts 116°
2026-05-06 18:21 53.25183 -110.67908 35053 ft 507 kts 117°
2026-05-06 18:21 53.21499 -110.57864 35044 ft 507 kts 117°
2026-05-06 18:22 53.17804 -110.47828 35035 ft 507 kts 117°
2026-05-06 18:22 53.14104 -110.37815 35035 ft 507 kts 117°
2026-05-06 18:23 53.10394 -110.27815 35032 ft 507 kts 117°
2026-05-06 18:23 53.06675 -110.17830 35036 ft 507 kts 117°
2026-05-06 18:24 53.02949 -110.07858 35050 ft 508 kts 117°
2026-05-06 18:24 52.99350 -109.97803 35042 ft 503 kts 108°
2026-05-06 18:25 52.96744 -109.87206 35063 ft 498 kts 104°
2026-05-06 18:25 52.94252 -109.76491 35078 ft 498 kts 105°
2026-05-06 18:26 52.91703 -109.65769 35067 ft 500 kts 105°
2026-05-06 18:26 52.89106 -109.55096 35122 ft 500 kts 105°
2026-05-06 18:27 52.86473 -109.44396 35085 ft 501 kts 105°
2026-05-06 18:27 52.83829 -109.33707 35082 ft 502 kts 105°
2026-05-06 18:28 52.81180 -109.23035 35083 ft 502 kts 105°
2026-05-06 18:28 52.78539 -109.12443 35084 ft 502 kts 105°
2026-05-06 18:29 52.75873 -109.01801 35090 ft 501 kts 105°
2026-05-06 18:29 52.73198 -108.91173 35136 ft 501 kts 105°
2026-05-06 18:30 52.70511 -108.80546 35096 ft 502 kts 106°
2026-05-06 18:30 52.67816 -108.69944 35095 ft 501 kts 106°
2026-05-06 18:31 52.65116 -108.59371 35092 ft 500 kts 106°
2026-05-06 18:31 52.62411 -108.48827 35092 ft 500 kts 106°
2026-05-06 18:32 52.59696 -108.38295 35100 ft 499 kts 106°
2026-05-06 18:32 52.56979 -108.27801 35106 ft 498 kts 106°
2026-05-06 18:33 52.54254 -108.17321 35103 ft 499 kts 106°
2026-05-06 18:33 52.51517 -108.06852 35094 ft 498 kts 106°
2026-05-06 18:34 52.48777 -107.96418 35098 ft 497 kts 107°
2026-05-06 18:34 52.46031 -107.86008 35098 ft 497 kts 107°
2026-05-06 18:35 52.43279 -107.75621 35100 ft 496 kts 107°
2026-05-06 18:35 52.40990 -107.67016 35110 ft 496 kts 107°
2026-05-06 18:36 52.37775 -107.54986 35107 ft 496 kts 107°
2026-05-06 18:36 52.35446 -107.46312 35110 ft 496 kts 107°
2026-05-06 18:37 52.32665 -107.35998 35107 ft 496 kts 107°
2026-05-06 18:37 52.29875 -107.25695 35105 ft 496 kts 107°
2026-05-06 18:38 52.27094 -107.15474 35110 ft 496 kts 107°
2026-05-06 18:38 52.24268 -107.05131 35109 ft 496 kts 107°
2026-05-06 18:39 52.21471 -106.94936 35124 ft 497 kts 107°
2026-05-06 18:40 52.16565 -106.79904 35050 ft 503 kts 114°
2026-05-06 18:40 52.13042 -106.70054 35045 ft 503 kts 114°
2026-05-06 18:41 52.09553 -106.60194 35050 ft 502 kts 113°
2026-05-06 18:41 52.03345 -106.42438 35074 ft 502 kts 113°
2026-05-06 18:42 51.96413 -106.22704 35120 ft 503 kts 112°
2026-05-06 18:42 51.92895 -106.12757 35119 ft 504 kts 112°
2026-05-06 18:43 51.89401 -106.02922 35116 ft 504 kts 112°
2026-05-06 18:43 51.85919 -105.93158 35118 ft 504 kts 113°
2026-05-06 18:44 51.82407 -105.83344 35115 ft 504 kts 113°
2026-05-06 18:44 51.78879 -105.73526 35115 ft 505 kts 113°
2026-05-06 18:45 51.75339 -105.63711 35113 ft 507 kts 112°
2026-05-06 18:45 51.71781 -105.53885 35115 ft 508 kts 112°
2026-05-06 18:46 51.68207 -105.44053 35117 ft 508 kts 112°
2026-05-06 18:46 51.64623 -105.34234 35119 ft 509 kts 112°
2026-05-06 18:47 51.61026 -105.24416 35117 ft 509 kts 113°
2026-05-06 18:47 51.57419 -105.14608 35119 ft 509 kts 113°
2026-05-06 18:48 51.53802 -105.04811 35163 ft 510 kts 112°
2026-05-06 18:48 51.50192 -104.95069 35126 ft 511 kts 112°
2026-05-06 18:49 51.46528 -104.85220 35120 ft 511 kts 113°
2026-05-06 18:49 51.42879 -104.75451 35126 ft 510 kts 113°
2026-05-06 18:50 51.39225 -104.65707 35128 ft 510 kts 113°
2026-05-06 18:50 51.35590 -104.56047 35123 ft 510 kts 113°
2026-05-06 18:51 51.31928 -104.46351 35143 ft 509 kts 113°
2026-05-06 18:51 51.28257 -104.36668 35128 ft 510 kts 114°
2026-05-06 18:52 51.24578 -104.27001 35129 ft 508 kts 114°
2026-05-06 18:52 51.20903 -104.17385 35112 ft 507 kts 114°
2026-05-06 18:53 51.17226 -104.07797 35115 ft 506 kts 114°
2026-05-06 18:53 51.13551 -103.98250 35116 ft 505 kts 114°
2026-05-06 18:54 51.09877 -103.88738 35119 ft 504 kts 114°
2026-05-06 18:54 51.06197 -103.79242 35115 ft 504 kts 114°
2026-05-06 18:55 51.02507 -103.69758 35115 ft 504 kts 114°
2026-05-06 18:55 50.98808 -103.60287 35114 ft 505 kts 114°
2026-05-06 18:56 50.95094 -103.50813 35109 ft 506 kts 115°
2026-05-06 18:56 50.91361 -103.41325 35107 ft 507 kts 115°
2026-05-06 18:57 50.87617 -103.31846 35110 ft 508 kts 115°
2026-05-06 18:57 50.83887 -103.22434 35161 ft 508 kts 116°
2026-05-06 18:58 50.80116 -103.12955 35113 ft 509 kts 116°
2026-05-06 18:58 50.76339 -103.03497 35103 ft 508 kts 116°
2026-05-06 18:59 50.72561 -102.94072 35101 ft 507 kts 116°
2026-05-06 18:59 50.68790 -102.84698 35099 ft 505 kts 116°
2026-05-06 19:00 50.65015 -102.75343 35101 ft 504 kts 116°
2026-05-06 19:00 50.61269 -102.66094 35148 ft 503 kts 116°
2026-05-06 19:01 50.57496 -102.56808 35115 ft 504 kts 118°
2026-05-06 19:01 50.53691 -102.47573 35108 ft 502 kts 117°
2026-05-06 19:02 50.49937 -102.38344 35102 ft 501 kts 117°
2026-05-06 19:02 50.46170 -102.29143 35097 ft 500 kts 117°
2026-05-06 19:03 50.42394 -102.19980 35101 ft 500 kts 117°
2026-05-06 19:03 50.38610 -102.10836 35104 ft 500 kts 117°
2026-05-06 19:04 50.34819 -102.01702 35105 ft 500 kts 118°
2026-05-06 19:04 50.31019 -101.92582 35101 ft 500 kts 118°
2026-05-06 19:05 50.27240 -101.83545 35096 ft 500 kts 118°
2026-05-06 19:05 50.23435 -101.74476 35098 ft 499 kts 118°
2026-05-06 19:06 50.19620 -101.65412 35101 ft 499 kts 118°
2026-05-06 19:06 50.15805 -101.56378 35101 ft 498 kts 118°
2026-05-06 19:07 50.11981 -101.47357 35129 ft 498 kts 119°
2026-05-06 19:07 50.08158 -101.38359 35089 ft 498 kts 120°
2026-05-06 19:08 50.04328 -101.29390 35092 ft 496 kts 120°
2026-05-06 19:08 50.00503 -101.20461 35099 ft 495 kts 120°
2026-05-06 19:09 49.96684 -101.11572 35098 ft 494 kts 120°
2026-05-06 19:09 49.92860 -101.02705 35097 ft 494 kts 120°
2026-05-06 19:10 49.89033 -100.93867 35119 ft 493 kts 120°
2026-05-06 19:10 49.85205 -100.85053 35098 ft 493 kts 120°
2026-05-06 19:11 49.81368 -100.76245 35098 ft 493 kts 120°
2026-05-06 19:11 49.77527 -100.67452 35092 ft 493 kts 121°
2026-05-06 19:12 49.73710 -100.58742 35097 ft 492 kts 121°
2026-05-06 19:12 49.69861 -100.49990 35086 ft 492 kts 121°
2026-05-06 19:13 49.66007 -100.41254 35093 ft 492 kts 121°
2026-05-06 19:13 49.62150 -100.32540 35098 ft 492 kts 121°
2026-05-06 19:14 49.58279 -100.23824 35093 ft 492 kts 121°
2026-05-06 19:14 49.54410 -100.15143 35090 ft 491 kts 121°
2026-05-06 19:15 49.50540 -100.06487 35085 ft 490 kts 121°
2026-05-06 19:15 49.46673 -99.97863 35094 ft 489 kts 121°
2026-05-06 19:16 49.42803 -99.89262 35092 ft 489 kts 122°
2026-05-06 19:16 49.38928 -99.80676 35102 ft 489 kts 122°
2026-05-06 19:17 49.35049 -99.72109 35096 ft 488 kts 122°
2026-05-06 19:17 49.31169 -99.63570 35091 ft 488 kts 122°
2026-05-06 19:18 49.27293 -99.55064 35095 ft 487 kts 122°
2026-05-06 19:18 49.23410 -99.46571 35097 ft 486 kts 122°
2026-05-06 19:19 49.19550 -99.38155 35095 ft 486 kts 122°
2026-05-06 19:19 49.15666 -99.29712 35115 ft 485 kts 123°
2026-05-06 19:20 49.11775 -99.21282 35100 ft 485 kts 123°
2026-05-06 19:20 49.07882 -99.12873 35099 ft 485 kts 123°
2026-05-06 19:21 49.03985 -99.04483 35103 ft 485 kts 123°
2026-05-06 19:21 49.00740 -98.97517 35097 ft 484 kts 123°
2026-05-06 19:22 48.96204 -98.87808 35091 ft 484 kts 123°
2026-05-06 19:22 48.92297 -98.79473 35106 ft 484 kts 123°
2026-05-06 19:23 48.89018 -98.72498 35103 ft 484 kts 124°
2026-05-06 19:23 48.85123 -98.64237 35095 ft 484 kts 124°
2026-05-06 19:24 48.81199 -98.55939 35106 ft 483 kts 124°
2026-05-06 19:24 48.77266 -98.47648 35098 ft 483 kts 124°
2026-05-06 19:25 48.73333 -98.39383 35097 ft 483 kts 124°
2026-05-06 19:25 48.69401 -98.31145 35099 ft 483 kts 124°
2026-05-06 19:26 48.65465 -98.22923 35096 ft 483 kts 124°
2026-05-06 19:26 48.61518 -98.14705 35093 ft 483 kts 124°
2026-05-06 19:27 48.57593 -98.06556 35093 ft 483 kts 124°
2026-05-06 19:27 48.53630 -97.98352 35094 ft 483 kts 124°
2026-05-06 19:28 48.49665 -97.90172 35083 ft 483 kts 124°
2026-05-06 19:28 48.45687 -97.81987 35086 ft 484 kts 124°
2026-05-06 19:29 48.41701 -97.73811 35088 ft 484 kts 125°
2026-05-06 19:29 48.37716 -97.65663 35073 ft 484 kts 125°
2026-05-06 19:30 48.33720 -97.57515 35087 ft 483 kts 125°
2026-05-06 19:30 48.29723 -97.49391 35058 ft 483 kts 125°
2026-05-06 19:31 48.25722 -97.41283 35058 ft 483 kts 125°
2026-05-06 19:31 48.19741 -97.29207 35055 ft 483 kts 125°
2026-05-06 19:32 48.15728 -97.21134 35068 ft 483 kts 126°
2026-05-06 19:32 48.11709 -97.13073 35062 ft 483 kts 126°
2026-05-06 19:33 48.07686 -97.05028 35060 ft 483 kts 126°
2026-05-06 19:33 48.03659 -96.97000 35064 ft 482 kts 126°
2026-05-06 19:34 47.99628 -96.88986 35061 ft 482 kts 126°
2026-05-06 19:34 47.95590 -96.80983 35045 ft 482 kts 126°
2026-05-06 19:35 47.91550 -96.73000 35036 ft 482 kts 126°
2026-05-06 19:35 47.87502 -96.65023 35027 ft 482 kts 126°
2026-05-06 19:36 47.83450 -96.57061 35026 ft 482 kts 126°
2026-05-06 19:36 47.79393 -96.49115 35088 ft 482 kts 127°
2026-05-06 19:37 47.75328 -96.41174 35094 ft 483 kts 127°
2026-05-06 19:37 47.71283 -96.33296 35093 ft 483 kts 127°
2026-05-06 19:38 47.67202 -96.25370 35099 ft 483 kts 127°
2026-05-06 19:38 47.63111 -96.17450 35072 ft 484 kts 127°
2026-05-06 19:39 47.59018 -96.09547 35072 ft 483 kts 127°
2026-05-06 19:39 47.54917 -96.01650 35069 ft 484 kts 127°
2026-05-06 19:40 47.50810 -95.93768 35063 ft 484 kts 127°
2026-05-06 19:40 47.46695 -95.85890 35063 ft 484 kts 127°
2026-05-06 19:41 47.42570 -95.78016 35061 ft 484 kts 127°
2026-05-06 19:41 47.38442 -95.70161 35068 ft 484 kts 127°
2026-05-06 19:42 47.27555 -95.49544 35093 ft 484 kts 128°
2026-05-06 19:42 47.10938 -95.18376 35060 ft 484 kts 128°
2026-05-06 19:43 46.94222 -94.87376 35062 ft 484 kts 129°
2026-05-06 19:43 46.89586 -94.78844 35060 ft 485 kts 129°
2026-05-06 19:44 46.85390 -94.71142 35052 ft 485 kts 129°
2026-05-06 19:44 46.81208 -94.63488 35049 ft 484 kts 129°
2026-05-06 19:45 46.77001 -94.55808 35036 ft 484 kts 129°
2026-05-06 19:45 46.72790 -94.48139 35029 ft 485 kts 129°
2026-05-06 19:46 46.68569 -94.40475 35037 ft 485 kts 129°
2026-05-06 19:46 46.64343 -94.32824 35027 ft 485 kts 129°
2026-05-06 19:47 46.60112 -94.25181 35042 ft 485 kts 129°
2026-05-06 19:47 46.55873 -94.17546 35057 ft 484 kts 130°
2026-05-06 19:48 46.53603 -94.13948 35042 ft 482 kts 143°
2026-05-06 19:48 46.50783 -94.11398 35083 ft 476 kts 159°
2026-05-06 19:48 46.44650 -94.07999 35083 ft 475 kts 162°
2026-05-06 19:49 46.38397 -94.04658 34291 ft 487 kts 162°
2026-05-06 19:49 46.35233 -94.02927 33514 ft 485 kts 161°
2026-05-06 19:49 46.32111 -94.01193 32937 ft 475 kts 161°
2026-05-06 19:50 46.29045 -93.99479 32368 ft 471 kts 161°
2026-05-06 19:50 46.26002 -93.97778 31838 ft 467 kts 161°
2026-05-06 19:50 46.22984 -93.96094 31302 ft 463 kts 161°
2026-05-06 19:50 46.19993 -93.94429 30769 ft 459 kts 161°
2026-05-06 19:51 46.17018 -93.92777 30241 ft 456 kts 161°
2026-05-06 19:51 46.14062 -93.91138 29598 ft 454 kts 161°
2026-05-06 19:51 46.11131 -93.89514 29022 ft 449 kts 161°
2026-05-06 19:51 46.08237 -93.87911 28477 ft 439 kts 161°
2026-05-06 19:52 46.05418 -93.86354 27925 ft 430 kts 161°
2026-05-06 19:52 46.02629 -93.84821 27216 ft 426 kts 161°
2026-05-06 19:52 45.99884 -93.83318 26703 ft 420 kts 161°
2026-05-06 19:52 45.97161 -93.81829 26201 ft 417 kts 161°
2026-05-06 19:53 45.94491 -93.80370 25711 ft 415 kts 161°
2026-05-06 19:53 45.91798 -93.78899 25226 ft 413 kts 161°
2026-05-06 19:53 45.89113 -93.77434 24731 ft 411 kts 161°
2026-05-06 19:53 45.86448 -93.75980 24265 ft 409 kts 161°
2026-05-06 19:54 45.83785 -93.74528 23769 ft 409 kts 161°
2026-05-06 19:54 45.81133 -93.73083 23224 ft 407 kts 161°
2026-05-06 19:54 45.78492 -93.71646 22702 ft 405 kts 161°
2026-05-06 19:54 45.75865 -93.70220 22205 ft 402 kts 161°
2026-05-06 19:55 45.73262 -93.68813 21749 ft 398 kts 161°
2026-05-06 19:55 45.70673 -93.67427 21258 ft 396 kts 161°
2026-05-06 19:55 45.68101 -93.66053 20773 ft 393 kts 161°
2026-05-06 19:55 45.65550 -93.64691 20314 ft 390 kts 161°
2026-05-06 19:56 45.63035 -93.63347 19864 ft 388 kts 161°
2026-05-06 19:56 45.60490 -93.61989 19410 ft 386 kts 161°
2026-05-06 19:56 45.57980 -93.60649 18951 ft 384 kts 161°
2026-05-06 19:56 45.55489 -93.59304 18508 ft 382 kts 161°
2026-05-06 19:57 45.53024 -93.57963 18010 ft 376 kts 161°
2026-05-06 19:57 45.50595 -93.56641 17459 ft 371 kts 161°
2026-05-06 19:57 45.48202 -93.55341 16664 ft 375 kts 161°
2026-05-06 19:57 45.45733 -93.54003 16017 ft 374 kts 161°
2026-05-06 19:58 45.43320 -93.52695 15493 ft 369 kts 161°
2026-05-06 19:58 45.40936 -93.51405 14977 ft 365 kts 161°
2026-05-06 19:58 45.38575 -93.50129 14443 ft 361 kts 161°
2026-05-06 19:58 45.36266 -93.48883 13932 ft 358 kts 161°
2026-05-06 19:59 45.33947 -93.47635 13362 ft 354 kts 161°
2026-05-06 19:59 45.31657 -93.46410 12827 ft 350 kts 162°
2026-05-06 19:59 45.29391 -93.45202 12288 ft 346 kts 162°
2026-05-06 19:59 45.27150 -93.44009 11736 ft 343 kts 162°
2026-05-06 20:00 45.24926 -93.42825 11188 ft 340 kts 162°
2026-05-06 20:00 45.22723 -93.41652 10672 ft 337 kts 162°
2026-05-06 20:00 45.20541 -93.40491 10202 ft 333 kts 162°
2026-05-06 20:00 45.18415 -93.39358 10035 ft 318 kts 162°
2026-05-06 20:01 45.16395 -93.38282 9975 ft 302 kts 162°
2026-05-06 20:01 45.14461 -93.37252 9971 ft 296 kts 161°
2026-05-06 20:01 45.12566 -93.36122 9913 ft 293 kts 158°
2026-05-06 20:01 45.10718 -93.34940 9585 ft 290 kts 158°
2026-05-06 20:02 45.08883 -93.33772 9073 ft 289 kts 158°
2026-05-06 20:02 45.07040 -93.32610 8581 ft 289 kts 159°
2026-05-06 20:02 45.05294 -93.31225 8096 ft 291 kts 138°
2026-05-06 20:02 45.04080 -93.28955 7651 ft 290 kts 121°
2026-05-06 20:03 45.03046 -93.26515 7231 ft 288 kts 121°
2026-05-06 20:03 45.02037 -93.24118 6801 ft 287 kts 121°
2026-05-06 20:03 45.01012 -93.21699 6400 ft 285 kts 122°
2026-05-06 20:03 44.99998 -93.19325 6112 ft 279 kts 122°
2026-05-06 20:04 44.98994 -93.16989 5634 ft 280 kts 122°
2026-05-06 20:04 44.97984 -93.14649 5240 ft 277 kts 122°
2026-05-06 20:04 44.96992 -93.12354 4786 ft 278 kts 122°
2026-05-06 20:04 44.95983 -93.10025 4398 ft 276 kts 122°
2026-05-06 20:05 44.94996 -93.07753 4227 ft 265 kts 122°
2026-05-06 20:05 44.94051 -93.05578 4130 ft 256 kts 122°
2026-05-06 20:05 44.93130 -93.03466 4010 ft 248 kts 123°
2026-05-06 20:05 44.92244 -93.01451 4010 ft 236 kts 122°
2026-05-06 20:06 44.91386 -92.99486 4020 ft 234 kts 122°
2026-05-06 20:06 44.90537 -92.97543 3833 ft 230 kts 122°
2026-05-06 20:06 44.89698 -92.95616 3448 ft 231 kts 122°
2026-05-06 20:06 44.88759 -92.93785 3053 ft 230 kts 141°
2026-05-06 20:07 44.87340 -92.92870 3019 ft 227 kts 178°
2026-05-06 20:07 44.85826 -92.93178 3003 ft 216 kts 206°
2026-05-06 20:07 44.84460 -92.94033 2989 ft 214 kts 213°
2026-05-06 20:07 44.83382 -92.95361 2988 ft 202 kts 243°
2026-05-06 20:08 44.82732 -92.97118 2986 ft 203 kts 251°
2026-05-06 20:08 44.82408 -92.99024 3006 ft 200 kts 263°
2026-05-06 20:08 44.82167 -93.00950 2988 ft 201 kts 262°
2026-05-06 20:08 44.82014 -93.02897 2978 ft 198 kts 277°
2026-05-06 20:09 44.82267 -93.04780 2991 ft 195 kts 282°
2026-05-06 20:09 44.82455 -93.06013 2989 ft 194 kts 287°
2026-05-06 20:09 44.83061 -93.07726 2852 ft 198 kts 301°
2026-05-06 20:09 44.83790 -93.09336 2576 ft 190 kts 301°
2026-05-06 20:10 44.84452 -93.10855 2311 ft 174 kts 301°
2026-05-06 20:10 44.85053 -93.12253 2080 ft 159 kts 300°
2026-05-06 20:10 44.85753 -93.13879 1816 ft 135 kts 300°
2026-05-06 20:10 44.86069 -93.14603 1666 ft 123 kts 301°
2026-05-06 20:11 44.86522 -93.15655 1577 ft 126 kts 301°
2026-05-06 20:11 44.86984 -93.16708 1449 ft 126 kts 301°
2026-05-06 20:11 44.87437 -93.17756 1227 ft 125 kts 297°
2026-05-06 20:11 44.87869 -93.18802 1000 ft 122 kts 300°
2026-05-06 20:12 44.88291 -93.19782 827 ft 113 kts 300°
2026-05-06 20:12 44.88651 -93.20614 822 ft 78 kts 301°
2026-05-06 20:12 44.88856 -93.21086 822 ft 35 kts 301°
2026-05-06 20:12 44.88929 -93.21254 825 ft 16 kts 302°
2026-05-06 20:13 44.88961 -93.21384 824 ft 13 kts 245°
2026-05-06 20:13 44.88895 -93.21439 825 ft 11 kts 164°
2026-05-06 20:13 44.88848 -93.21367 822 ft 10 kts 130°
2026-05-06 20:13 44.88791 -93.21300 824 ft 14 kts 151°
2026-05-06 20:14 44.88687 -93.21280 824 ft 13 kts 194°
2026-05-06 20:14 44.88645 -93.21302 824 ft 1 kts 202°